World > North America > United States > Minnesota

Hourly Iona, MN Regional Weather

Feedback E-mail the Weather

Quick WX

Iona, MN Weather Maps

°F °C°F °C
Iona Weather Map
UTC Time: 7/6/2022, 00:55
Your Time:

Iona, MN Regional Weather

Expires:202207060100;;754107
ASUS43 KMPX 060010
RWRMN 
WEATHER ROUNDUP FOR MINNESOTA
NATIONAL WEATHER SERVICE TWIN CITIES/CHANHASSEN MN
700 PM CDT TUE JUL 05 2022


NOTE: "FAIR" INDICATES FEW OR NO CLOUDS BELOW 12,000 FEET WITH NO
SIGNIFICANT WEATHER AND/OR OBSTRUCTIONS TO VISIBILITY. N/A MEANS
CURRENT SKY AND/OR WEATHER CONDITIONS ARE NOT AVAILABLE.


MNZ071>073-080-081-089-090-097-098-060100-
   Southwest Minnesota   
  
CITY           SKY/WX    TMP DP  RH WIND       PRES   REMARKS
MONTEVIDEO     CLOUDY    75  68  78 NE7       29.86R                  
GRANITE FALLS  CLOUDY    77  72  85 NW15      29.88R                  
CANBY          CLOUDY    73  70  88 N10       29.88R                  
MARSHALL       CLOUDY    74  72  93 N9        29.81F                  
REDWOOD FALLS  LGT RAIN  75  73  93 SE16G35   29.72F                  
OLIVIA         CLOUDY    73  70  88 E15G26    29.76F                  
PIPESTONE      CLOUDY    73  70  88 SE15G23   29.79F                  
WINDOM         RAIN      72  70  94 N5        29.92F                  
WORTHINGTON    LGT RAIN  69  69 100 E13       29.92F FOG              
JACKSON        CLOUDY    68  68 100 CALM      29.95F                  
TRACY          CLOUDY    75  70  84 SE20G33   29.75F                  
SLAYTON        LGT RAIN  70  70  99 SE24      29.80F                  
$$

SKY/WX - Weather  TMP - Temperature  DP - Dew Point  RH - Humidity
WIND - Wind Direction/Speed PRES - Barometric Pressure VSB - Visibility
WCI - Wind Chill Index E13G22 Wind - East Wind 13 mph/Gusts of 22 mph

Trending Headlines

Iona Radar Loop



Iona Quick Facts


National Two Day Weather Forecast


E-mail the Iona Weather Forecast

Voice your opinion or tell us about page issues...